CZ-4B R/B

Last updated on Tue Sep 16 2025 00:02:15 GMT+0000 (Coordinated Universal Time)

1 29507U 06046C 25258.60772343 .00004855 00000+0 26270-3 0 9994 2 29507 97.5879 298.9894 0035950 151.1784 209.1444 15.14573805 33524
UTC large
Height (km)
Speed (km/s)
/
Latitude / Longitude
Inclination (degrees)
Orbital Period (minutes)
Azimuth
Elevation
Range (km)
Doppler Factor

Next 0 passes for location: London (51.5072 / 0.1276)

Sorry there are no passes over London.